This is the latest recevied weather packets stored in our database for station/object N9XRG. If no packets are shown the sender has not sent any weather packets the latest 10 day(s).
| Time | Temp. | Humidity | Pressure | Rain* | Wind** | Luminosity | Snow |
|---|---|---|---|---|---|---|---|
| 1777754006 | 11.67° C | 41% | 1017.4 hPa | 0 mm | - | 355 W/m² | - |
| 1777753706 | 11.11° C | 42% | 1017.5 hPa | 0 mm | - | 270 W/m² | - |
| 1777753404 | 10.56° C | 41% | 1017.6 hPa | 0 mm | - | 358 W/m² | - |
| 1777753102 | 10° C | 42% | 1017.7 hPa | 0 mm | - | 596 W/m² | - |
| 1777752797 | 10° C | 44% | 1017.5 hPa | 0 mm | - | 236 W/m² | - |
| 1777752495 | 10° C | 44% | 1017.6 hPa | 0 mm | - | 276 W/m² | - |
| 1777752190 | 10.56° C | 44% | 1017.9 hPa | 0 mm | - | 344 W/m² | - |
| 1777751889 | 10.56° C | 40% | 1018 hPa | 0 mm | - | 316 W/m² | - |
| 1777751585 | 11.11° C | 42% | 1018.1 hPa | 0 mm | - | 345 W/m² | - |
| 1777751281 | 10.56° C | 45% | 1018 hPa | 0 mm | - | 961 W/m² | - |
| 1777750978 | 10° C | 43% | 1018 hPa | 0 mm | - | 325 W/m² | - |
| 1777750674 | 10° C | 42% | 1018.3 hPa | 0 mm | - | 288 W/m² | - |
| 1777750372 | 10° C | 45% | 1018.1 hPa | 0 mm | - | 261 W/m² | - |
| 1777750071 | 10° C | 43% | 1018.3 hPa | 0 mm | - | 283 W/m² | - |
| 1777749769 | 10° C | 46% | 1018.2 hPa | 0 mm | - | 325 W/m² | - |
| 1777749466 | 9.44° C | 43% | 1018.3 hPa | 0 mm | - | 492 W/m² | - |
| 1777749164 | 10° C | 42% | 1018.2 hPa | 0 mm | - | 415 W/m² | - |
| 1777748861 | 9.44° C | 44% | 1018.3 hPa | 0 mm | - | 329 W/m² | - |
| 1777748558 | 9.44° C | 45% | 1018.5 hPa | 0 mm | - | 309 W/m² | - |
| 1777748253 | 10° C | 45% | 1018.4 hPa | 0 mm | - | 336 W/m² | - |
| 1777747950 | 10° C | 45% | 1018.5 hPa | 0 mm | - | 365 W/m² | - |
| 1777747646 | 10° C | 42% | 1018.6 hPa | 0 mm | - | 468 W/m² | - |
| 1777747342 | 10° C | 44% | 1018.3 hPa | 0 mm | - | 484 W/m² | - |
| 1777747039 | 9.44° C | 44% | 1018.4 hPa | 0 mm | - | 602 W/m² | - |
| 1777746735 | 9.44° C | 44% | 1018.7 hPa | 0 mm | - | 453 W/m² | - |
* Rain latest hour (hover to see other rain measurements)
** Current wind speed in m/s (hover to see current wind gust speed)